Location: Unnamed
(54.5186°N, 36.2255°E)
Time: 18:06:51
(UTC+03:00)

ISS - Pass Details

Date: 21 February 2026
Orbit: 416 x 427 km, 51.6° (Epoch: 5 March)

Event Time Altitude Azimuth Distance (km) Brightness Sun altitude
Exits shadow 04:39:56 17° 112° (ESE) 1,151 -1.1 -27.0°
Drops below altitude 10° 04:41:03 10° 97° (E) 1,497 -0.2 -26.8°
Sets 04:43:23 0° 84° (E) 2,361 1.3 -26.5°
